Location: Newark
(45.8667°N, 9.7333°E)
Time: 21:57:55
(UTC+00:00)

Transit 4A - Pass Details

Date: 02 February 2020
Orbit: 872 x 973 km, 66.8° (Epoch: 20 February)

Event Time Altitude Azimuth Distance (km) Brightness Sun altitude
Rises 12:45:40 0° 326° (NW) 3,471 10.6 25.2°
Reaches altitude 10° 12:48:09 10° 326° (NW) 2,529 9.9 25.1°
Maximum altitude 12:54:00 85° 239° (WSW) 886 8.4 24.7°
Drops below altitude 10° 12:59:53 10° 151° (SSE) 2,543 10.9 24.4°
Sets 13:02:22 0° 151° (SSE) 3,491 11.4 24.2°
